When you browse on this site, cookies collect data to enhance your experience and personalize the content and advertising you see.
Visit our Privacy Policy to learn more. By continuing to use the site, you agree to this use of cookies and data.
  • en Belgique
  • Liste des pays
  • À 7 jours
  • Température de l'eau
  • Carte satellitaire
  • Carte météo
  • Widgets météo
  • user-avatar
    Se connecter

    Météo par heure à Sables d'Or

    Ce jour, 22 Janvier, Mardi

    Heure Température Précipitation Vent Pression Humidité
    00:00 -1°C° 0 mm 5 m/s 766 mmHg 83%
    01:00 -1°C° 0 mm 4 m/s 766 mmHg 84%
    02:00 -2°C° 0 mm 4 m/s 766 mmHg 83%
    03:00 -2°C° 0 mm 4 m/s 766 mmHg 84%
    04:00 -1°C° 0 mm 4 m/s 766 mmHg 84%
    05:00 0°C° 0 mm 3 m/s 765 mmHg 85%
    06:00 0°C° 0 mm 3 m/s 765 mmHg 84%
    07:00 0°C° 0 mm 3 m/s 765 mmHg 83%
    08:00 0°C° 0 mm 4 m/s 765 mmHg 82%
    09:00 0°C° 0 mm 4 m/s 765 mmHg 81%
    10:00 +1°C° 0 mm 4 m/s 765 mmHg 79%
    11:00 +1°C° 0 mm 4 m/s 764 mmHg 78%
    12:00 +3°C° 0 mm 4 m/s 764 mmHg 78%
    13:00 +3°C° 0 mm 4 m/s 763 mmHg 79%
    14:00 +3°C° 0 mm 4 m/s 763 mmHg 79%
    15:00 +2°C° 0 mm 5 m/s 762 mmHg 80%
    16:00 +2°C° 0 mm 5 m/s 762 mmHg 82%
    17:00 +2°C° 0 mm 6 m/s 761 mmHg 83%
    18:00 +3°C° 0 mm 6 m/s 761 mmHg 84%
    19:00 +3°C° 0 mm 7 m/s 760 mmHg 85%
    20:00 +3°C° 0 mm 7 m/s 760 mmHg 85%
    21:00 +3°C° 0 mm 7 m/s 759 mmHg 86%
    22:00 +4°C° 0 mm 7 m/s 759 mmHg 86%
    23:00 +4°C° 0 mm 8 m/s 758 mmHg 87%

    Demain, 23 Janvier, Mercredi

    Heure Température Précipitation Vent Pression Humidité
    00:00 +4°C° 0 mm 8 m/s 758 mmHg 88%
    01:00 +4°C° 0 mm 8 m/s 757 mmHg 89%
    02:00 +5°C° 0 mm 8 m/s 756 mmHg 91%
    03:00 +5°C° 0.1 mm 8 m/s 756 mmHg 92%
    04:00 +5°C° 0.1 mm 8 m/s 755 mmHg 93%
    05:00 +5°C° 0.1 mm 8 m/s 754 mmHg 94%
    06:00 +6°C° 2 mm 8 m/s 754 mmHg 94%
    07:00 +6°C° 2 mm 8 m/s 753 mmHg 94%
    08:00 +6°C° 2 mm 8 m/s 753 mmHg 94%
    09:00 +7°C° 0 mm 9 m/s 753 mmHg 90%
    10:00 +8°C° 0 mm 9 m/s 753 mmHg 86%
    11:00 +8°C° 0 mm 9 m/s 753 mmHg 83%
    12:00 +10°C° 0 mm 8 m/s 753 mmHg 81%
    13:00 +10°C° 0 mm 8 m/s 752 mmHg 79%
    14:00 +11°C° 0 mm 7 m/s 752 mmHg 77%
    15:00 +10°C° 0 mm 7 m/s 752 mmHg 80%
    16:00 +9°C° 0 mm 8 m/s 752 mmHg 83%
    17:00 +9°C° 0 mm 8 m/s 752 mmHg 86%
    18:00 +9°C° 0 mm 8 m/s 752 mmHg 88%
    19:00 +9°C° 0 mm 8 m/s 751 mmHg 89%
    20:00 +7°C° 0 mm 9 m/s 751 mmHg 91%
    21:00 +7°C° 0 mm 9 m/s 751 mmHg 91%
    22:00 +7°C° 0 mm 9 m/s 751 mmHg 90%
    23:00 +7°C° 0 mm 9 m/s 751 mmHg 90%

    Après-demain, 24 Janvier, Jeudi

    Heure Température Précipitation Vent Pression Humidité
    00:00 +7°C° 0.1 mm 9 m/s 751 mmHg 91%
    01:00 +7°C° 0.1 mm 8 m/s 751 mmHg 92%
    02:00 +7°C° 0.1 mm 8 m/s 751 mmHg 93%
    03:00 +7°C° 0.2 mm 8 m/s 750 mmHg 94%
    04:00 +8°C° 0.2 mm 7 m/s 750 mmHg 95%
    05:00 +6°C° 0.2 mm 7 m/s 749 mmHg 96%
    06:00 +6°C° 0 mm 7 m/s 749 mmHg 95%
    07:00 +6°C° 0 mm 8 m/s 749 mmHg 94%
    08:00 +6°C° 0 mm 8 m/s 749 mmHg 93%
    09:00 +7°C° 0.2 mm 8 m/s 749 mmHg 89%
    10:00 +7°C° 0.2 mm 8 m/s 748 mmHg 86%
    11:00 +9°C° 0.2 mm 7 m/s 748 mmHg 82%
    12:00 +8°C° 1.2 mm 6 m/s 748 mmHg 85%
    13:00 +8°C° 1.2 mm 5 m/s 747 mmHg 88%
    14:00 +8°C° 1.2 mm 4 m/s 747 mmHg 92%
    15:00 +8°C° 0.5 mm 5 m/s 747 mmHg 91%
    16:00 +8°C° 0.5 mm 5 m/s 747 mmHg 91%
    17:00 +7°C° 0.5 mm 6 m/s 746 mmHg 90%
    18:00 +8°C° 0 mm 6 m/s 747 mmHg 88%
    19:00 +8°C° 0 mm 6 m/s 747 mmHg 85%
    20:00 +8°C° 0 mm 6 m/s 747 mmHg 83%
    21:00 +8°C° 0 mm 6 m/s 747 mmHg 84%
    22:00 +8°C° 0 mm 6 m/s 748 mmHg 86%
    23:00 +8°C° 0 mm 6 m/s 748 mmHg 87%

    25 Janvier, Vendredi

    Heure Température Précipitation Vent Pression Humidité
    00:00 +8°C° 0 mm 6 m/s 748 mmHg 88%
    01:00 +8°C° 0 mm 6 m/s 748 mmHg 89%
    02:00 +7°C° 0 mm 6 m/s 749 mmHg 90%
    03:00 +7°C° 0 mm 6 m/s 749 mmHg 90%
    04:00 +7°C° 0 mm 6 m/s 749 mmHg 90%
    05:00 +7°C° 0 mm 6 m/s 749 mmHg 90%
    06:00 +7°C° 0 mm 6 m/s 749 mmHg 89%
    07:00 +8°C° 0 mm 6 m/s 749 mmHg 89%
    08:00 +8°C° 0 mm 6 m/s 749 mmHg 88%
    09:00 +8°C° 1 mm 6 m/s 749 mmHg 89%
    10:00 +8°C° 1 mm 6 m/s 750 mmHg 90%
    11:00 +8°C° 1 mm 6 m/s 750 mmHg 90%
    12:00 +8°C° 0.7 mm 7 m/s 750 mmHg 89%
    13:00 +7°C° 0.7 mm 8 m/s 750 mmHg 88%
    14:00 +7°C° 0.7 mm 8 m/s 749 mmHg 86%
    15:00 +7°C° 0.1 mm 8 m/s 749 mmHg 86%
    16:00 +7°C° 0.1 mm 8 m/s 749 mmHg 85%
    17:00 +7°C° 0.1 mm 8 m/s 749 mmHg 84%
    18:00 +7°C° 0.1 mm 9 m/s 749 mmHg 84%
    19:00 +7°C° 0.1 mm 9 m/s 749 mmHg 84%
    20:00 +7°C° 0.1 mm 10 m/s 749 mmHg 84%
    21:00 +7°C° 0.2 mm 10 m/s 749 mmHg 85%
    22:00 +7°C° 0.2 mm 10 m/s 749 mmHg 86%
    23:00 +7°C° 0.2 mm 11 m/s 749 mmHg 88%

    26 Janvier, Samedi

    Heure Température Précipitation Vent Pression Humidité
    00:00 +7°C° 0.9 mm 10 m/s 748 mmHg 89%
    01:00 +7°C° 0.9 mm 10 m/s 748 mmHg 90%
    02:00 +7°C° 0.9 mm 9 m/s 748 mmHg 92%
    03:00 +7°C° 0.3 mm 9 m/s 748 mmHg 91%
    04:00 +7°C° 0.3 mm 8 m/s 748 mmHg 89%
    05:00 +7°C° 0.3 mm 8 m/s 747 mmHg 88%
    06:00 +8°C° 0.1 mm 7 m/s 748 mmHg 89%
    07:00 +7°C° 0.1 mm 5 m/s 748 mmHg 91%
    08:00 +7°C° 0.1 mm 4 m/s 748 mmHg 92%
    09:00 +8°C° 0 mm 4 m/s 748 mmHg 90%
    10:00 +8°C° 0 mm 4 m/s 749 mmHg 88%
    11:00 +9°C° 0 mm 5 m/s 749 mmHg 85%
    12:00 +10°C° 0 mm 4 m/s 749 mmHg 83%
    13:00 +10°C° 0 mm 4 m/s 749 mmHg 81%
    14:00 +10°C° 0 mm 3 m/s 749 mmHg 79%
    15:00 +10°C° 0 mm 4 m/s 749 mmHg 83%
    16:00 +8°C° 0 mm 6 m/s 749 mmHg 87%
    17:00 +6°C° 0 mm 7 m/s 749 mmHg 90%
    18:00 +6°C° 0 mm 8 m/s 750 mmHg 91%
    19:00 +5°C° 0 mm 8 m/s 750 mmHg 92%
    20:00 +5°C° 0 mm 9 m/s 751 mmHg 92%
    21:00 +5°C° 0 mm 9 m/s 751 mmHg 92%
    22:00 +5°C° 0 mm 9 m/s 751 mmHg 91%
    23:00 +5°C° 0 mm 8 m/s 752 mmHg 91%

    27 Janvier, Dimanche

    Heure Température Précipitation Vent Pression Humidité
    00:00 +5°C° 0.2 mm 8 m/s 752 mmHg 91%
    01:00 +3°C° 0.2 mm 9 m/s 752 mmHg 91%
    02:00 +3°C° 0.2 mm 9 m/s 752 mmHg 91%
    03:00 +3°C° 0 mm 9 m/s 752 mmHg 91%
    04:00 +3°C° 0 mm 9 m/s 752 mmHg 91%
    05:00 +4°C° 0 mm 8 m/s 752 mmHg 91%
    06:00 +4°C° 0 mm 8 m/s 752 mmHg 91%
    07:00 +4°C° 0 mm 8 m/s 753 mmHg 91%
    08:00 +4°C° 0 mm 8 m/s 753 mmHg 91%
    09:00 +4°C° 0 mm 8 m/s 753 mmHg 90%
    10:00 +4°C° 0 mm 8 m/s 753 mmHg 89%
    11:00 +4°C° 0 mm 8 m/s 754 mmHg 88%
    12:00 +4°C° 0 mm 8 m/s 753 mmHg 88%
    13:00 +2°C° 0 mm 9 m/s 753 mmHg 87%
    14:00 +2°C° 0 mm 9 m/s 753 mmHg 86%
    15:00 +2°C° 0 mm 9 m/s 754 mmHg 87%
    16:00 +2°C° 0 mm 9 m/s 754 mmHg 87%
    17:00 +2°C° 0 mm 10 m/s 754 mmHg 87%
    18:00 +1°C° 0 mm 10 m/s 754 mmHg 87%
    19:00 +1°C° 0 mm 10 m/s 754 mmHg 88%
    20:00 +1°C° 0 mm 11 m/s 755 mmHg 88%
    21:00 +1°C° 0 mm 11 m/s 755 mmHg 88%
    22:00 +1°C° 0 mm 11 m/s 755 mmHg 88%
    23:00 +1°C° 0 mm 11 m/s 755 mmHg 89%
    Voir plus